Location: Rounton
(54.4000°N, 1.3500°W)
Time: 14:18:08
(UTC+00:00)

Altair - Pass Details

Date: 01 December 2021
Orbit: 1501 x 1683 km, 47.2° (Epoch: 19 January)

Event Time Altitude Azimuth Distance (km) Brightness Sun altitude
Rises 18:36:30 0° 252° (WSW) 4,716 11.4 -23.7°
Reaches altitude 10° 18:39:39 10° 248° (WSW) 3,712 10.5 -24.1°
Maximum altitude 18:48:38 56° 174° (S) 1,760 7.7 -25.4°
Enters shadow 18:51:56 39° 121° (ESE) 2,131 7.8 -25.9°
Drops below altitude 10° 18:57:28 10° 100° (E) 3,653 - -26.7°
Sets 19:00:32 0° 97° (E) 4,637 - -27.2°
